Tracking 26894 objects as of 2-Feb-2023
HD Live streaming from Space Station
objects crossing your sky now

NOAA 17 DEB

Track NOAA 17 DEB now!
10-day predictions


NORAD ID: 48729
Int'l Code: 2002-032BP
Perigee: 773.6 km
Apogee: 804.1 km
Inclination: 98.4 °
Period: 100.5 minutes
Semi major axis: 7159 km
RCS: Unknown
Launch date: June 24, 2002
Source: United States (US)
Launch site: AIR FORCE WESTERN TEST RANGE (AFWTR)

Note: This is SATELLITE DEBRIS
Your satellite tracking list
Your tracking list is empty




NASA's NSSDC Master Catalog

Two Line Element Set (TLE):
1 48729U 02032BN  23032.08044978  .00005132  00000-0  18843-2 0  9994
2 48729  98.4353 327.1064 0021316  44.3698 315.9190 14.33013727 97380
Source of the keplerian elements: AFSPC